{"data":{"norad_id":43915,"epoch":"2026-05-25T00:35:10.680288Z","epoch_age_seconds":63084,"freshness":"FRESH","line1":"1 43915U 18112G   26145.02442917  .00000251  00000+0  16207-3 0  9998","line2":"2 43915  50.0125 325.9733 0006923 244.6511 115.3688 14.29019031384997","mean_motion":14.29019031,"eccentricity":0.0006923,"inclination_deg":50.0125,"raan_deg":325.9733,"arg_perigee_deg":244.6511,"mean_anomaly_deg":115.3688,"bstar":0.00016207,"rev_number":38499,"period_min":100.76842706513,"perigee_km":790.04571363168,"apogee_km":799.97765530019,"semimajor_km":7173.1486844659,"source":"CELESTRAK","updated_at":"2026-05-25T13:37:55.929363Z"}}